Regional Weather Roundup
Issued by NWS Huntsville, AL

Home | Current Version | Previous Version | Text Only | Print | Product List | Glossary On
Versions: 1 2 3 4 5 6 7 8 9 10 11 12 13 14 15 16 17 18 19 20 21 22 23 24 25 26 27 28 29 30 31 32 33 34 35 36 37 38 39 40 41 42 43 44 45 46 47 48 49 50
000
ASUS44 KHUN 271110
RWRHUN

WEATHER ROUNDUP FOR THE TENNESSEE VALLEY
NATIONAL WEATHER SERVICE HUNTSVILLE AL
600 AM CDT WED JUL 27 2016

ALZ001>004-271200-
NORTHWEST ALABAMA

CITY           SKY/WX    TMP DP  RH WIND       PRES   REMARKS
COURTLAND HCN    N/A     77 N/A N/A S9          N/A
RUSSELLVILLE     N/A     75 N/A N/A MISG        N/A
SHOALS AIRPORT PTCLDY    76  72  87 CALM      30.02R
SHOALS TVA RES   N/A     75 N/A N/A MISG        N/A
$$

ALZ005>007-016-271200-
NORTH CENTRAL ALABAMA

CITY           SKY/WX    TMP DP  RH WIND       PRES   REMARKS
CULLMAN AG STN   N/A     75 N/A N/A CALM        N/A
DECATUR AP     MOCLDY    75  73  93 SE3       30.02R
HUNTSVILLE AP  PTCLDY    77  70  79 CALM      30.03R
HUN NWS/UAH      N/A     77  70  78 S2          N/A
MERIDIANVILLE  CLEAR     73  64  73 CALM      30.04R
REDSTONE ARSN  CLEAR     74  72  93 CALM      30.02R
VINEMONT AP    CLOUDY    75  72  89 S6        30.05S
$$

ALZ008>010-271200-
NORTHEAST ALABAMA

CITY           SKY/WX    TMP DP  RH WIND       PRES   REMARKS
ALBERTVILLE    CLOUDY    73  73 100 S3        30.04R
FORT PAYNE     MOCLDY    72  68  88 CALM      30.05R
SCOTTSBORO AP  MOCLDY    73  73 100 CALM      30.04R
SCOTTSBORO HCN   N/A     72 N/A N/A MISG        N/A
VALLEY HEAD      N/A     72 N/A N/A MISG        N/A
$$

TNZ076-096-097-271200-
SOUTHEASTERN MIDDLE TENNESSEE

CITY           SKY/WX    TMP DP  RH WIND       PRES   REMARKS
TULLAHOMA      PTCLDY    73  72  94 CALM      30.06R
WINCHESTER     CLOUDY    73  72  94 CALM      30.05R
$$

...SURROUNDING SITES...

CITY           SKY/WX    TMP DP  RH WIND       PRES   REMARKS
ATLANTA        CLOUDY    76  73  91 SW9       30.06R
ANNISTON       MOCLDY    76  72  87 CALM      30.04R
BIRMINGHAM     CLOUDY    78  72  81 S7        30.05R
CHATTANOOGA    PTCLDY    76  72  87 CALM      30.04R
DALTON         CLOUDY    73  72  94 CALM      30.05R
GADSDEN        CLOUDY    76  74  93 CALM        N/A
GOLDEN TRNGL   CLOUDY    77  70  78 S7        29.97R
HALEYVILLE     LGT RAIN  74  73  97 S3        30.05R FOG
JACKSON TN     CLEAR     73  73 100 CALM      29.98R
MEMPHIS        MOCLDY    80  72  76 SE7       29.96R
NASHVILLE      PTCLDY    74  71  91 SE3       30.01R
OXFORD MS      CLOUDY    75  72  88 SE6       29.99S
ROME           PTCLDY    73  71  93 CALM      30.04R
SAVANNAH       CLOUDY    73  73 100 SE3       29.98R
TUPELO         CLOUDY    78  73  84 SE7       29.98R
TUSCALOOSA     CLOUDY    77  75  93 S5        30.00R
$$

...GULF COAST WEATHER...

CITY           SKY/WX    TMP DP  RH WIND       PRES   REMARKS
GULFPORT       MOCLDY    82  74  76 S5        29.99R
PASCAGOULA     PTCLDY    74  74 100 CALM      30.00R
MOBILE         PTCLDY    74  72  93 CALM      30.02R
GULF SHORES    CLOUDY    77  75  93 CALM      30.01R
PENSACOLA      PTCLDY    77  72  84 CALM      30.01R
DESTIN         CLEAR     85  73  67 SW3       30.03R HX  91
PANAMA CITY    CLEAR     75  74  96 CALM      30.04R
APPALACHICOLA  CLEAR     75  75 100 CALM      30.04R
$$




USA.gov is the U.S. government's official web portal to all federal, state and local government web resources and services.